Location: Newark
(21.1200°N, 73.4000°E)
Time: 05:14:56
(UTC+00:00)

Courier 1B Rocket - Pass Details

Date: 22 January 2020
Orbit: 920 x 1202 km, 28.2° (Epoch: 25 February)

Event Time Altitude Azimuth Distance (km) Brightness Sun altitude
Rises 10:22:36 0° 286° (WNW) 3,706 8.5 29.1°
Reaches altitude 10° 10:25:28 10° 292° (WNW) 2,717 7.8 28.6°
Maximum altitude 10:31:41 45° 4° (N) 1,250 5.6 27.4°
Drops below altitude 10° 10:37:39 10° 77° (ENE) 2,609 6.8 26.3°
Sets 10:40:21 0° 83° (E) 3,545 7.5 25.8°
